LEMUR-2-URSA-AVION (46318 NORAD) Tracking and Keplerian Element Data

This shows tracking and keplerian element data for the satellite.

Feedback or suggestion? Click here.




ElementValue
Catalog46318
NameLEMUR-2-URSA-AVION
Epoch Orbit1262
Epoch Day330.78152918
Epoch Year2020
RAAN42.4521
Inclination97.5123
Eccentricity0.0001746
Argument of Perigee1.4442
Mean Anonmoly358.6792
Mean Motion15.1122761
Decay Rate2.666E-05
L11 46318U 20061AY 20330.78152918 .00002666 00000-0 16245-3 0 9991
L22 46318 97.5123 42.4521 0001746 1.4442 358.6792 15.11227610 12629

Live tracking and technical data element details for LEMUR-2-URSA-AVION (NORAD 46318). LEMUR-2-URSA-AVION can be tracked NOW for your location showing map with azimuth and elevation plus other details from your city location.

Track the satellite on the map from your city or location and see movement details for azimuth, elevation, latitude, longitude, range, height, and movement on the map or in text.







IsCatalogInMostPopularTable: catalog: 46318, numindb: 19
Update: records affected: 1



GetName: 46318 LEMUR-2-URSA-AVION

Hit Count: updated at: Fri, 27 Nov 2020 00:26:17 GMT